• In Belgien
  • Länderverzeichnis
  • Für 7 Tage
  • Wassertemperatur
  • Satellitenkarten
  • Wetterkarte
  • Widgets
  • user-avatar
    Anmelden

    Stündliche Wetter Podele

    Heute, 16 November, Freitag

    Zeit Temperatur Niederschläge Wind Luftdruck Luftfeuchtigkeit
    00:00 -3°C° 0 mm 2 m/S 762 mmHg 77%
    01:00 -3°C° 0 mm 2 m/S 762 mmHg 78%
    02:00 -3°C° 0 mm 2 m/S 763 mmHg 78%
    03:00 -3°C° 0 mm 2 m/S 763 mmHg 79%
    04:00 -3°C° 0 mm 2 m/S 763 mmHg 80%
    05:00 -3°C° 0 mm 2 m/S 763 mmHg 81%
    06:00 -3°C° 0 mm 2 m/S 764 mmHg 82%
    07:00 -3°C° 0 mm 2 m/S 764 mmHg 83%
    08:00 -3°C° 0 mm 2 m/S 764 mmHg 85%
    09:00 -2°C° 0 mm 2 m/S 764 mmHg 82%
    10:00 -2°C° 0 mm 2 m/S 764 mmHg 78%
    11:00 -1°C° 0 mm 2 m/S 764 mmHg 75%
    12:00 -1°C° 0 mm 2 m/S 764 mmHg 77%
    13:00 -1°C° 0 mm 2 m/S 764 mmHg 78%
    14:00 -1°C° 0 mm 2 m/S 764 mmHg 80%
    15:00 -1°C° 0 mm 2 m/S 764 mmHg 83%
    16:00 -2°C° 0 mm 2 m/S 764 mmHg 87%
    17:00 -2°C° 0 mm 2 m/S 764 mmHg 90%
    18:00 -2°C° 0 mm 2 m/S 764 mmHg 91%
    19:00 -2°C° 0 mm 2 m/S 764 mmHg 92%
    20:00 -2°C° 0 mm 3 m/S 763 mmHg 93%
    21:00 -2°C° 0 mm 3 m/S 763 mmHg 93%
    22:00 -2°C° 0 mm 3 m/S 763 mmHg 93%
    23:00 -4°C° 0 mm 3 m/S 763 mmHg 94%

    Morgen, 17 November, Samstag

    Zeit Temperatur Niederschläge Wind Luftdruck Luftfeuchtigkeit
    00:00 -2°C° 0 mm 3 m/S 762 mmHg 93%
    01:00 -2°C° 0 mm 3 m/S 762 mmHg 92%
    02:00 -2°C° 0 mm 3 m/S 762 mmHg 91%
    03:00 -2°C° 0 mm 3 m/S 761 mmHg 90%
    04:00 -2°C° 0 mm 3 m/S 761 mmHg 90%
    05:00 -3°C° 0 mm 4 m/S 760 mmHg 89%
    06:00 -2°C° 0 mm 4 m/S 760 mmHg 88%
    07:00 -2°C° 0 mm 4 m/S 759 mmHg 88%
    08:00 -2°C° 0 mm 4 m/S 758 mmHg 87%
    09:00 -2°C° 0.2 mm 4 m/S 758 mmHg 86%
    10:00 -1°C° 0.2 mm 4 m/S 757 mmHg 84%
    11:00 -1°C° 0.2 mm 4 m/S 757 mmHg 83%
    12:00 -1°C° 0.7 mm 4 m/S 756 mmHg 84%
    13:00 -1°C° 0.7 mm 4 m/S 755 mmHg 86%
    14:00 -1°C° 0.7 mm 4 m/S 755 mmHg 88%
    15:00 -1°C° 0.5 mm 4 m/S 754 mmHg 88%
    16:00 -1°C° 0.5 mm 4 m/S 753 mmHg 89%
    17:00 -1°C° 0.5 mm 4 m/S 752 mmHg 90%
    18:00 -1°C° 0.3 mm 4 m/S 751 mmHg 91%
    19:00 -1°C° 0.3 mm 4 m/S 751 mmHg 91%
    20:00 -1°C° 0.3 mm 4 m/S 750 mmHg 92%
    21:00 -1°C° 0.2 mm 4 m/S 749 mmHg 92%
    22:00 0°C° 0.2 mm 3 m/S 749 mmHg 93%
    23:00 0°C° 0.2 mm 3 m/S 748 mmHg 94%

    übermorgen, 18 November, Sonntag

    Zeit Temperatur Niederschläge Wind Luftdruck Luftfeuchtigkeit
    00:00 0°C° 0.1 mm 3 m/S 747 mmHg 95%
    01:00 0°C° 0.1 mm 3 m/S 747 mmHg 95%
    02:00 +1°C° 0.1 mm 2 m/S 747 mmHg 96%
    03:00 +1°C° 0 mm 2 m/S 746 mmHg 96%
    04:00 +1°C° 0 mm 2 m/S 746 mmHg 97%
    05:00 -1°C° 0 mm 2 m/S 745 mmHg 97%
    06:00 +1°C° 0.1 mm 1 m/S 745 mmHg 98%
    07:00 +1°C° 0.1 mm 1 m/S 745 mmHg 98%
    08:00 +1°C° 0.1 mm 1 m/S 745 mmHg 98%
    09:00 +2°C° 0.1 mm 1 m/S 745 mmHg 97%
    10:00 +2°C° 0.1 mm 1 m/S 746 mmHg 97%
    11:00 +2°C° 0.1 mm 1 m/S 746 mmHg 96%
    12:00 +2°C° 0.2 mm 1 m/S 746 mmHg 96%
    13:00 +2°C° 0.2 mm 1 m/S 747 mmHg 97%
    14:00 +1°C° 0.2 mm 0 m/S 747 mmHg 97%
    15:00 +2°C° 0.1 mm 1 m/S 747 mmHg 97%
    16:00 +2°C° 0.1 mm 1 m/S 748 mmHg 97%
    17:00 +1°C° 0.1 mm 1 m/S 748 mmHg 97%
    18:00 +1°C° 0.2 mm 1 m/S 749 mmHg 97%
    19:00 -1°C° 0.2 mm 2 m/S 749 mmHg 97%
    20:00 -1°C° 0.2 mm 2 m/S 750 mmHg 97%
    21:00 -1°C° 0.1 mm 2 m/S 750 mmHg 97%
    22:00 -1°C° 0.1 mm 2 m/S 751 mmHg 97%
    23:00 -2°C° 0.1 mm 2 m/S 751 mmHg 96%

    19 November, Montag

    Zeit Temperatur Niederschläge Wind Luftdruck Luftfeuchtigkeit
    00:00 -2°C° 0.1 mm 2 m/S 752 mmHg 96%
    01:00 -2°C° 0.1 mm 2 m/S 752 mmHg 96%
    02:00 -2°C° 0.1 mm 3 m/S 753 mmHg 95%
    03:00 -2°C° 0.1 mm 3 m/S 753 mmHg 95%
    04:00 -1°C° 0.1 mm 3 m/S 754 mmHg 95%
    05:00 -1°C° 0.1 mm 3 m/S 754 mmHg 94%
    06:00 -1°C° 0.1 mm 3 m/S 755 mmHg 94%
    07:00 -1°C° 0.1 mm 3 m/S 755 mmHg 93%
    08:00 -1°C° 0.1 mm 3 m/S 756 mmHg 93%
    09:00 -1°C° 0 mm 3 m/S 757 mmHg 93%
    10:00 0°C° 0 mm 3 m/S 757 mmHg 92%
    11:00 0°C° 0 mm 3 m/S 758 mmHg 92%
    12:00 +1°C° 0 mm 2 m/S 758 mmHg 92%
    13:00 +1°C° 0 mm 2 m/S 759 mmHg 93%
    14:00 +1°C° 0 mm 2 m/S 759 mmHg 94%
    15:00 -1°C° 0 mm 2 m/S 759 mmHg 94%
    16:00 -1°C° 0 mm 2 m/S 760 mmHg 95%
    17:00 -1°C° 0 mm 2 m/S 760 mmHg 96%
    18:00 -1°C° 0 mm 2 m/S 760 mmHg 96%
    19:00 -1°C° 0 mm 2 m/S 760 mmHg 97%
    20:00 -1°C° 0 mm 2 m/S 760 mmHg 97%
    21:00 +1°C° 0 mm 1 m/S 761 mmHg 97%
    22:00 +1°C° 0 mm 1 m/S 761 mmHg 97%
    23:00 +1°C° 0 mm 1 m/S 761 mmHg 97%

    20 November, Dienstag

    Zeit Temperatur Niederschläge Wind Luftdruck Luftfeuchtigkeit
    00:00 +1°C° 0 mm 1 m/S 761 mmHg 97%
    01:00 +1°C° 0 mm 1 m/S 761 mmHg 97%
    02:00 +1°C° 0 mm 1 m/S 761 mmHg 97%
    03:00 +1°C° 0 mm 1 m/S 761 mmHg 97%
    04:00 +1°C° 0 mm 1 m/S 761 mmHg 97%
    05:00 +1°C° 0 mm 1 m/S 760 mmHg 97%
    06:00 +1°C° 0 mm 1 m/S 760 mmHg 97%
    07:00 +1°C° 0 mm 1 m/S 760 mmHg 97%
    08:00 +1°C° 0 mm 1 m/S 760 mmHg 97%
    09:00 +1°C° 0 mm 1 m/S 760 mmHg 96%
    10:00 +1°C° 0 mm 1 m/S 760 mmHg 95%
    11:00 +2°C° 0 mm 1 m/S 760 mmHg 94%
    12:00 +2°C° 0 mm 1 m/S 759 mmHg 94%
    13:00 +2°C° 0 mm 1 m/S 759 mmHg 94%
    14:00 +2°C° 0 mm 1 m/S 759 mmHg 95%
    15:00 +1°C° 0 mm 1 m/S 758 mmHg 95%
    16:00 +1°C° 0 mm 1 m/S 758 mmHg 95%
    17:00 +1°C° 0 mm 1 m/S 758 mmHg 95%
    18:00 +1°C° 0 mm 1 m/S 758 mmHg 96%
    19:00 0°C° 0 mm 1 m/S 757 mmHg 96%
    20:00 0°C° 0 mm 1 m/S 757 mmHg 96%
    21:00 0°C° 0 mm 1 m/S 757 mmHg 96%
    22:00 0°C° 0 mm 1 m/S 757 mmHg 96%
    23:00 -1°C° 0 mm 1 m/S 757 mmHg 96%

    21 November, Mittwoch

    Zeit Temperatur Niederschläge Wind Luftdruck Luftfeuchtigkeit
    00:00 -1°C° 0 mm 1 m/S 757 mmHg 96%
    01:00 -1°C° 0 mm 1 m/S 756 mmHg 96%
    02:00 -1°C° 0 mm 1 m/S 756 mmHg 95%
    03:00 -1°C° 0 mm 1 m/S 756 mmHg 96%
    04:00 -2°C° 0 mm 1 m/S 756 mmHg 96%
    05:00 -2°C° 0 mm 1 m/S 755 mmHg 96%
    06:00 -2°C° 0 mm 1 m/S 755 mmHg 96%
    07:00 -2°C° 0 mm 1 m/S 755 mmHg 96%
    08:00 -3°C° 0 mm 1 m/S 755 mmHg 96%
    09:00 -2°C° 0 mm 1 m/S 755 mmHg 93%
    10:00 -1°C° 0 mm 1 m/S 755 mmHg 90%
    11:00 -1°C° 0 mm 1 m/S 755 mmHg 88%
    12:00 -1°C° 0 mm 1 m/S 755 mmHg 88%
    13:00 -1°C° 0 mm 1 m/S 754 mmHg 89%
    14:00 -1°C° 0 mm 1 m/S 754 mmHg 90%
    15:00 -1°C° 0 mm 1 m/S 754 mmHg 91%
    16:00 -2°C° 0 mm 1 m/S 754 mmHg 93%
    17:00 -2°C° 0 mm 1 m/S 754 mmHg 95%
    18:00 -2°C° 0 mm 1 m/S 754 mmHg 95%
    19:00 -2°C° 0 mm 1 m/S 753 mmHg 95%
    20:00 -2°C° 0 mm 1 m/S 753 mmHg 95%
    21:00 -2°C° 0 mm 1 m/S 753 mmHg 94%
    22:00 -2°C° 0 mm 1 m/S 753 mmHg 94%
    23:00 -1°C° 0 mm 1 m/S 753 mmHg 94%
    Mehr zeigen